VE3FWM Weather Reports


Display with metric or nautical units.
time (UTC)temp
F
wind
direction
speed
MPH
gust
MPH
rain 1hr
in
rain 24hr
in
rain mn
in
humidity
%
barometer
mb
20260510060027 47 252 1.0 7.0 0.00 0.09 0.00 62 1009.2
20260510054524 47 271 1.0 4.0 0.00 0.09 0.00 61 1008.8
20260510053044 48 288 0.0 4.0 0.00 0.09 0.00 61 1008.5
20260510051519 48 273 1.0 8.0 0.00 0.09 0.00 60 1008.4
20260510050020 49 272 1.0 4.0 0.00 0.09 0.00 62 1008.3
20260510044513 49 263 2.0 9.0 0.00 0.09 0.00 63 1008.4
20260510043012 49 292 1.0 4.0 0.00 0.09 0.00 63 1007.8
20260510041509 49 258 1.0 7.0 0.00 0.09 0.00 65 1007.8
20260510040006 49 288 1.0 6.0 0.00 0.09 0.09 64 1007.7
20260510034503 49 294 0.0 4.0 0.00 0.09 0.09 64 1007.4
20260510033002 49 348 1.0 5.0 0.00 0.09 0.09 66 1007.2
20260510031505 50 303 1.0 9.0 0.00 0.09 0.09 68 1007.1
20260510030001 50 311 1.0 5.0 0.00 0.09 0.09 70 1006.6
20260510024609 51 316 1.0 5.0 0.00 0.09 0.09 71 1006.7
20260510023100 51 325 1.0 4.0 0.00 0.09 0.09 72 1006.7
20260510021600 52 287 1.0 8.0 0.00 0.09 0.09 77 1006.7
20260510020059 52 321 3.0 10.0 0.00 0.09 0.09 87 1006.3
20260510014558 52 274 3.0 8.0 0.00 0.09 0.09 89 1005.8
20260510013058 52 238 1.0 8.0 0.00 0.09 0.09 89 1005.4
20260510011557 52 223 1.0 4.0 0.00 0.09 0.09 89 1004.8
20260510010056 52 222 0.0 4.0 0.00 0.09 0.09 88 1004.4
20260510004600 52 215 1.0 4.0 0.03 0.09 0.09 87 1004.2
20260510003057 53 235 1.0 5.0 0.03 0.09 0.09 86 1004.0
20260510001555 54 236 1.0 4.0 0.04 0.09 0.09 85 1003.8
20260510000100 55 227 1.0 5.0 0.04 0.09 0.09 83 1003.8
20260509234555 55 273 1.0 9.0 0.01 0.06 0.06 81 1003.4
20260509233057 56 229 2.0 8.0 0.01 0.06 0.06 80 1003.0
20260509231553 57 254 2.0 9.0 0.00 0.05 0.05 79 1002.8
20260509230055 57 219 4.0 13.0 0.00 0.05 0.05 78 1002.5
20260509224553 58 184 3.0 11.0 0.00 0.05 0.05 78 1002.4
20260509223054 57 212 3.0 15.0 0.02 0.05 0.05 80 1002.5
20260509221551 56 196 4.0 18.0 0.05 0.05 0.05 84 1002.3
20260509220051 56 193 3.0 16.0 0.05 0.05 0.05 83 1002.3
20260509214605 56 202 2.0 18.0 0.05 0.05 0.05 80 1002.1
20260509213050 59 217 2.0 11.0 0.02 0.02 0.02 74 1002.7
20260509211549 61 205 2.0 16.0 0.00 0.00 0.00 65 1002.5
20260509210052 62 184 4.0 24.0 0.00 0.00 0.00 59 1002.6
20260509204548 62 183 3.0 25.0 0.00 0.00 0.00 56 1002.2
20260509203058 62 205 3.0 14.0 0.00 0.00 0.00 57 1001.8
20260509201545 62 211 2.0 12.0 0.00 0.00 0.00 59 1002.0
20260509200044 62 182 5.0 13.0 0.00 0.00 0.00 62 1002.2
20260509194547 61 173 4.0 14.0 0.00 0.00 0.00 67 1002.5
20260509193041 61 184 5.0 15.0 0.00 0.00 0.00 66 1002.7
20260509191554 62 173 2.0 15.0 0.00 0.00 0.00 66 1002.8
20260509190041 62 162 4.0 18.0 0.00 0.00 0.00 66 1002.9
20260509184548 64 180 5.0 13.0 0.00 0.00 0.00 62 1003.0
20260509183048 63 146 3.0 18.0 0.00 0.00 0.00 65 1003.1
20260509181536 63 168 5.0 16.0 0.00 0.00 0.00 65 1003.0
20260509180035 64 162 4.0 18.0 0.00 0.00 0.00 63 1003.3
20260509174533 64 164 7.0 14.0 0.00 0.00 0.00 62 1003.4
20260509173033 62 131 5.0 16.0 0.00 0.00 0.00 66 1003.7
20260509171529 63 148 5.0 12.0 0.00 0.00 0.00 64 1004.1
20260509170025 63 125 2.0 12.0 0.00 0.00 0.00 66 1004.5
20260509164523 63 190 3.0 12.0 0.00 0.00 0.00 60 1004.8
20260509163031 62 171 3.0 12.0 0.00 0.00 0.00 67 1004.8
20260509161516 61 170 2.0 12.0 0.00 0.00 0.00 68 1004.9
20260509160016 61 190 3.0 10.0 0.00 0.00 0.00 70 1005.2
20260509154510 59 199 2.0 10.0 0.00 0.00 0.00 75 1005.6
20260509153008 57 173 2.0 10.0 0.00 0.00 0.00 77 1005.9
20260509151503 56 247 2.0 8.0 0.00 0.00 0.00 77 1006.1
20260509150103 55 178 2.0 8.0 0.00 0.00 0.00 79 1006.2
20260509144600 54 180 1.0 8.0 0.00 0.00 0.00 79 1006.1
20260509143054 54 200 3.0 12.0 0.00 0.00 0.00 80 1006.0
20260509141551 53 197 2.0 8.0 0.00 0.00 0.00 79 1006.4
20260509140051 53 211 2.0 7.0 0.00 0.00 0.00 78 1006.5
20260509134547 52 176 2.0 9.0 0.00 0.00 0.00 80 1006.6
20260509133043 50 136 1.0 6.0 0.00 0.00 0.00 80 1006.7
20260509131538 49 118 1.0 6.0 0.00 0.00 0.00 79 1006.7
20260509130041 49 148 1.0 7.0 0.00 0.01 0.00 77 1007.0
20260509124542 49 166 3.0 7.0 0.00 0.01 0.00 77 1007.0
20260509123035 48 142 3.0 8.0 0.00 0.01 0.00 77 1007.1
20260509121532 47 175 2.0 6.0 0.00 0.01 0.00 78 1007.1
20260509120026 46 157 1.0 5.0 0.00 0.01 0.00 78 1007.1
20260509114524 44 138 1.0 6.0 0.00 0.01 0.00 83 1006.9
20260509113024 42 108 0.0 3.0 0.00 0.01 0.00 88 1007.1
20260509111518 40 188 1.0 3.0 0.00 0.01 0.00 89 1007.0
20260509110014 39 202 0.0 0.0 0.00 0.01 0.00 88 1007.0
20260509104511 38 202 0.0 0.0 0.00 0.01 0.00 88 1007.1
20260509103009 38 202 0.0 0.0 0.00 0.01 0.00 88 1007.2
20260509101510 38 202 0.0 2.0 0.00 0.01 0.00 88 1007.3
20260509100005 38 187 0.0 1.0 0.00 0.01 0.00 88 1007.3
20260509094501 38 187 0.0 2.0 0.00 0.01 0.00 88 1007.2
20260509093059 38 188 0.0 0.0 0.00 0.01 0.00 87 1007.4
20260509091606 38 188 0.0 0.0 0.00 0.01 0.00 88 1007.4
20260509084600 38 188 0.0 0.0 0.00 0.01 0.00 87 1007.6
20260509083101 38 188 0.0 2.0 0.00 0.01 0.00 87 1007.6
20260509081551 38 180 0.0 0.0 0.00 0.01 0.00 86 1007.6
20260509080053 39 180 0.0 1.0 0.00 0.01 0.00 86 1007.7
20260509074553 39 180 0.0 0.0 0.00 0.01 0.00 85 1007.7
20260509073051 39 180 0.0 0.0 0.00 0.01 0.00 85 1007.7
20260509071548 39 180 0.0 0.0 0.00 0.01 0.00 84 1007.8
20260509070045 39 180 0.0 0.0 0.00 0.01 0.00 82 1007.8
20260509064541 40 180 0.0 0.0 0.00 0.01 0.00 81 1007.9
20260509063039 40 180 0.0 0.0 0.00 0.01 0.00 81 1008.3
20260509061536 40 180 0.0 0.0 0.00 0.01 0.00 79 1008.6